Weather History for Lakeview AWS, OR

Change the Weather History Date:

Wednesday, February 15, 2012

  Actual Average Record
Temperature  
Mean Temperature 28 °F -  
Max Temperature 37 °F 41 °F 58 °F (1991)
Min Temperature 19 °F 24 °F -16 °F (1937)
Degree Days  
Heating Degree Days 37    
Moisture  
Dew Point 18 °F    
Average Humidity 69    
Maximum Humidity 93    
Minimum Humidity 48    
Precipitation  
Precipitation 0.00 in - - ()
Sea Level Pressure  
Sea Level Pressure 30.14 in    
Wind  
Wind Speed 13 mph (North)    
Max Wind Speed 20 mph    
Max Gust Speed 26 mph    
Visibility 10 miles    
Events      
Averages and records for this station are not official NWS values.
T = Trace of Precipitation, MM = Missing Value Source: NWS Daily Summary

Daily Weather History Graph

Daily Weather History Graph

Search for Another Location

Airport:

Trip Planner

Search our weather history database for the weather conditions in past years. The results will help you decide how hot, cold, wet, or windy it might be!

Date:

Astronomy

Feb. 15, 2012 Rise Set
Actual Time 6:58 AM PST 5:33 PM PST
Civil Twilight 6:29 AM PST 6:02 PM PST
Nautical Twilight 5:56 AM PST 6:35 PM PST
Astronomical Twilight 5:24 AM PST 7:07 PM PST
Moon 2:00 AM PST (2/15) 11:30 AM PST (2/15)
Length of Visible Light 11h 32m
Length of Day
10h 35m
Last Quarter, 38% of the Moon is Illuminated
Feb 15
Last Quarter
Feb 21
New
Feb 29
First Quarter
Mar 8
Full
Mar 14
Last Quarter

Hourly Weather History & Observations

Time (PST) Temp. Windchill Dew Point Humidity Pressure Visibility Wind Dir Wind Speed Gust Speed Precip Events Conditions
12:15 AM 23.0 °F 11.7 °F 17.6 °F 80% 29.95 in 10.0 mi North 11.5 mph - N/A   Partly Cloudy
12:35 AM 23.0 °F 13.1 °F 17.6 °F 80% 29.96 in 10.0 mi North 9.2 mph - N/A   Mostly Cloudy
12:55 AM 24.8 °F 14.0 °F 17.6 °F 74% 29.97 in 10.0 mi North 11.5 mph 19.6 mph N/A   Overcast
1:15 AM 24.8 °F 14.0 °F 19.4 °F 80% 29.98 in 10.0 mi North 11.5 mph - N/A   Overcast
1:35 AM 24.8 °F 14.0 °F 19.4 °F 80% 29.98 in 10.0 mi North 11.5 mph 17.3 mph N/A   Overcast
1:55 AM 24.8 °F 12.9 °F 19.4 °F 80% 30.00 in 10.0 mi North 13.8 mph - N/A   Overcast
2:15 AM 24.8 °F 11.9 °F 17.6 °F 74% 30.00 in 10.0 mi North 16.1 mph 24.2 mph N/A   Overcast
2:35 AM 24.8 °F 11.9 °F 17.6 °F 74% 30.01 in 10.0 mi North 16.1 mph 24.2 mph N/A   Overcast
2:55 AM 24.8 °F 11.1 °F 17.6 °F 74% 30.01 in 10.0 mi North 18.4 mph 24.2 mph N/A   Overcast
3:15 AM 24.8 °F 11.5 °F 17.6 °F 74% 30.02 in 10.0 mi North 17.3 mph 26.5 mph N/A   Overcast
3:35 AM 24.8 °F 11.1 °F 17.6 °F 74% 30.03 in 10.0 mi North 18.4 mph 21.9 mph N/A   Overcast
4:15 AM 23.0 °F 9.2 °F 17.6 °F 80% 30.05 in 10.0 mi North 17.3 mph 23.0 mph N/A   Overcast
4:55 AM 24.8 °F 12.4 °F 17.6 °F 74% 30.07 in 10.0 mi NNW 15.0 mph - N/A   Overcast
5:15 AM 24.8 °F 12.9 °F 17.6 °F 74% 30.08 in 10.0 mi North 13.8 mph 18.4 mph N/A   Overcast
5:35 AM 24.8 °F 14.0 °F 17.6 °F 74% 30.08 in 10.0 mi North 11.5 mph 17.3 mph N/A   Overcast
5:55 AM 24.8 °F 12.9 °F 17.6 °F 74% 30.07 in 10.0 mi North 13.8 mph 21.9 mph N/A   Overcast
6:35 AM 23.0 °F 13.1 °F 17.6 °F 80% 30.10 in 10.0 mi North 9.2 mph - N/A   Overcast
6:55 AM 24.8 °F 14.0 °F 17.6 °F 74% 30.10 in 10.0 mi North 11.5 mph - N/A   Overcast
7:15 AM 24.8 °F 14.0 °F 17.6 °F 74% 30.12 in 10.0 mi North 11.5 mph - N/A   Overcast
7:35 AM 24.8 °F 14.0 °F 17.6 °F 74% 30.13 in 10.0 mi North 11.5 mph - N/A   Overcast
7:55 AM 24.8 °F 11.5 °F 17.6 °F 74% 30.14 in 10.0 mi North 17.3 mph 23.0 mph N/A   Overcast
8:15 AM 24.8 °F 10.7 °F 15.8 °F 69% 30.13 in 10.0 mi North 19.6 mph 26.5 mph N/A   Mostly Cloudy
8:35 AM 24.8 °F 12.9 °F 17.6 °F 74% 30.15 in 10.0 mi North 13.8 mph 17.3 mph N/A   Mostly Cloudy
8:55 AM 26.6 °F 18.2 °F 17.6 °F 69% 30.15 in 10.0 mi NNE 8.1 mph - N/A   Overcast
9:15 AM 26.6 °F 15.7 °F 17.6 °F 69% 30.15 in 10.0 mi NNE 12.7 mph 18.4 mph N/A   Overcast
9:35 AM 28.4 °F 17.0 °F 15.8 °F 59% 30.16 in 10.0 mi North 15.0 mph 19.6 mph N/A   Overcast
10:15 AM 28.4 °F 18.0 °F 17.6 °F 64% 30.16 in 10.0 mi North 12.7 mph 24.2 mph N/A   Clear
10:35 AM 30.2 °F 18.9 °F 17.6 °F 60% 30.15 in 10.0 mi North 16.1 mph - N/A   Clear
10:55 AM 30.2 °F 19.3 °F 17.6 °F 60% 30.15 in 10.0 mi North 15.0 mph - N/A   Clear
11:15 AM 32.0 °F 20.8 °F 17.6 °F 55% 30.16 in 10.0 mi North 17.3 mph 20.7 mph N/A   Clear
11:35 AM 32.0 °F 21.2 °F 17.6 °F 55% 30.16 in 10.0 mi North 16.1 mph 20.7 mph N/A   Clear
11:55 AM 32.0 °F 20.5 °F 17.6 °F 55% 30.16 in 10.0 mi North 18.4 mph 23.0 mph N/A   Clear
12:15 PM 33.8 °F 22.5 °F 19.4 °F 56% 30.16 in 10.0 mi North 19.6 mph - N/A   Clear
12:55 PM 33.8 °F 23.5 °F 19.4 °F 56% 30.15 in 10.0 mi North 16.1 mph 23.0 mph N/A   Clear
1:15 PM 35.6 °F 26.2 °F 21.2 °F 56% 30.15 in 10.0 mi North 15.0 mph 21.9 mph N/A   Clear
1:35 PM 35.6 °F 26.2 °F 19.4 °F 52% 30.15 in 10.0 mi North 15.0 mph 20.7 mph N/A   Clear
1:55 PM 35.6 °F 26.2 °F 19.4 °F 52% 30.14 in 10.0 mi North 15.0 mph 20.7 mph N/A   Clear
2:15 PM 35.6 °F 26.2 °F 21.2 °F 56% 30.15 in 10.0 mi North 15.0 mph - N/A   Clear
2:35 PM 35.6 °F 25.5 °F 19.4 °F 52% 30.15 in 10.0 mi NNW 17.3 mph 20.7 mph N/A   Clear
2:55 PM 37.4 °F 28.2 °F 19.4 °F 48% 30.15 in 10.0 mi North 16.1 mph 20.7 mph N/A   Clear
3:15 PM 37.4 °F 28.5 °F 19.4 °F 48% 30.15 in 10.0 mi North 15.0 mph 20.7 mph N/A   Clear
3:35 PM 35.6 °F 26.2 °F 17.6 °F 48% 30.16 in 10.0 mi North 15.0 mph - N/A   Clear
3:55 PM 35.6 °F 26.2 °F 19.4 °F 52% 30.17 in 10.0 mi North 15.0 mph 20.7 mph N/A   Clear
4:15 PM 35.6 °F 26.6 °F 17.6 °F 48% 30.17 in 10.0 mi North 13.8 mph - N/A   Clear
4:35 PM 35.6 °F 27.1 °F 17.6 °F 48% 30.18 in 10.0 mi North 12.7 mph - N/A   Clear
4:55 PM 33.8 °F 26.4 °F 19.4 °F 56% 30.19 in 10.0 mi North 9.2 mph - N/A   Clear
5:15 PM 32.0 °F 23.0 °F 19.4 °F 60% 30.19 in 10.0 mi North 11.5 mph - N/A   Clear
5:35 PM 30.2 °F 19.8 °F 19.4 °F 64% 30.19 in 10.0 mi North 13.8 mph - N/A   Clear
5:55 PM 28.4 °F 18.0 °F 19.4 °F 69% 30.19 in 10.0 mi North 12.7 mph - N/A   Clear
6:15 PM 28.4 °F 20.4 °F 19.4 °F 69% 30.20 in 10.0 mi North 8.1 mph - N/A   Clear
6:35 PM 26.6 °F 16.8 °F 17.6 °F 69% 30.20 in 10.0 mi North 10.4 mph - N/A   Clear
6:55 PM 26.6 °F 18.2 °F 19.4 °F 74% 30.21 in 10.0 mi North 8.1 mph - N/A   Clear
7:15 PM 24.8 °F - 19.4 °F 80% 30.21 in 10.0 mi Calm Calm - N/A   Clear
7:35 PM 26.6 °F - 19.4 °F 74% 30.22 in 10.0 mi Calm Calm - N/A   Clear
7:55 PM 28.4 °F 24.6 °F 19.4 °F 69% 30.23 in 10.0 mi West 3.5 mph - N/A   Clear
8:15 PM 24.8 °F 16.1 °F 19.4 °F 80% 30.24 in 10.0 mi WNW 8.1 mph - N/A   Clear
8:35 PM 23.0 °F 14.7 °F 17.6 °F 80% 30.25 in 10.0 mi NW 6.9 mph - N/A   Clear
8:55 PM 21.2 °F 13.6 °F 17.6 °F 86% 30.25 in 10.0 mi NNW 5.8 mph - N/A   Clear
9:15 PM 19.4 °F 8.6 °F 15.8 °F 86% 30.25 in 10.0 mi NW 9.2 mph - N/A   Clear
9:35 PM 19.4 °F 8.6 °F 17.6 °F 93% 30.26 in 10.0 mi NNW 9.2 mph - N/A   Clear
9:55 PM 21.2 °F 11.7 °F 17.6 °F 86% 30.26 in 10.0 mi NNW 8.1 mph - N/A   Clear
10:35 PM 21.2 °F 10.1 °F 19.4 °F 93% 30.26 in 10.0 mi NNW 10.4 mph - N/A   Clear
10:55 PM 21.2 °F 9.5 °F 17.6 °F 86% 30.26 in 10.0 mi North 11.5 mph - N/A   Clear
11:15 PM 21.2 °F 10.9 °F 17.6 °F 86% 30.27 in 10.0 mi North 9.2 mph - N/A   Clear
11:35 PM 21.2 °F 11.7 °F 17.6 °F 86% 30.28 in 10.0 mi NNW 8.1 mph - N/A   Clear